Time,TemperatureF,DewpointF,PressureIn,WindDirection,WindDirectionDegrees,WindSpeedMPH,WindSpeedGustMPH,Humidity,HourlyPrecipIn,Conditions,Clouds,dailyrainin,SoftwareType,DateUTC
2013-03-05 00:00:00,26.0,20.2,29.10,SW,227,0.0,0.0,78,0.00,,,-99.99,HOBO +U30 +Weather +,2013-03-05 05:00:00,
2013-03-05 00:05:00,26.0,20.2,29.10,SW,227,0.0,0.0,78,0.00,,,-99.99,HOBO +U30 +Weather +,2013-03-05 05:05:00,
2013-03-05 00:10:00,26.1,20.2,29.10,SW,230,0.0,0.0,78,0.00,,,-99.99,HOBO +U30 +Weather +,2013-03-05 05:10:00,
2013-03-05 00:15:00,26.0,20.2,29.10,WSW,248,0.0,0.0,78,0.00,,,-99.99,HOBO +U30 +Weather +,2013-03-05 05:15:00,
2013-03-05 00:20:00,26.0,20.3,29.10,West,272,0.0,0.0,78,0.00,,,-99.99,HOBO +U30 +Weather +,2013-03-05 05:20:00,
2013-03-05 00:25:00,26.1,20.3,29.11,SW,227,0.0,0.0,78,0.00,,,-99.99,HOBO +U30 +Weather +,2013-03-05 05:25:00,
2013-03-05 00:30:00,26.1,20.3,29.11,SW,226,0.0,0.0,78,0.00,,,-99.99,HOBO +U30 +Weather +,2013-03-05 05:30:00,
2013-03-05 00:35:00,26.1,20.3,29.11,SW,230,0.0,0.0,78,0.00,,,-99.99,HOBO +U30 +Weather +,2013-03-05 05:35:00,
2013-03-05 00:40:00,26.1,20.4,29.11,SW,236,0.0,0.0,78,0.00,,,-99.99,HOBO +U30 +Weather +,2013-03-05 05:40:00,
2013-03-05 00:50:00,26.2,20.5,29.11,SW,233,0.0,0.0,78,0.00,,,-99.99,HOBO +U30 +Weather +,2013-03-05 05:50:00,
2013-03-05 00:55:00,26.2,20.4,29.11,WSW,248,0.0,0.0,78,0.00,,,-99.99,HOBO +U30 +Weather +,2013-03-05 05:55:00,
2013-03-05 01:00:00,26.3,20.5,29.11,SW,219,0.0,0.0,78,0.00,,,-99.99,HOBO +U30 +Weather +,2013-03-05 06:00:00,
2013-03-05 01:05:00,26.3,20.4,29.11,WSW,254,0.0,0.0,78,0.00,,,-99.99,HOBO +U30 +Weather +,2013-03-05 06:05:00,
2013-03-05 01:10:00,26.4,20.5,29.11,SW,219,0.0,0.0,78,0.00,,,-99.99,HOBO +U30 +Weather +,2013-03-05 06:10:00,
2013-03-05 01:20:00,26.4,20.5,29.11,SSW,211,0.0,0.0,78,0.00,,,-99.99,HOBO +U30 +Weather +,2013-03-05 06:20:00,
2013-03-05 01:25:00,26.5,20.6,29.12,SW,229,0.0,0.0,78,0.00,,,-99.99,HOBO +U30 +Weather +,2013-03-05 06:25:00,
2013-03-05 01:30:00,26.5,20.5,29.12,WSW,239,0.0,0.0,77,0.00,,,-99.99,HOBO +U30 +Weather +,2013-03-05 06:30:00,
2013-03-05 01:35:00,26.5,20.5,29.12,WSW,257,0.0,0.0,77,0.00,,,-99.99,HOBO +U30 +Weather +,2013-03-05 06:35:00,
2013-03-05 01:45:00,26.5,20.6,29.12,SW,234,0.0,0.0,78,0.00,,,-99.99,HOBO +U30 +Weather +,2013-03-05 06:45:00,
2013-03-05 01:55:00,26.6,20.6,29.12,WSW,247,0.0,0.0,77,0.00,,,-99.99,HOBO +U30 +Weather +,2013-03-05 06:55:00,
2013-03-05 02:00:00,26.6,20.7,29.12,WSW,239,0.0,0.0,77,0.00,,,-99.99,HOBO +U30 +Weather +,2013-03-05 07:00:00,
2013-03-05 02:05:00,26.7,20.8,29.12,SW,230,0.0,0.0,78,0.00,,,-99.99,HOBO +U30 +Weather +,2013-03-05 07:05:00,
2013-03-05 02:10:00,26.7,20.7,29.12,West,265,0.0,0.0,77,0.00,,,-99.99,HOBO +U30 +Weather +,2013-03-05 07:10:00,
2013-03-05 02:15:00,26.7,20.7,29.12,West,263,0.0,0.0,77,0.00,,,-99.99,HOBO +U30 +Weather +,2013-03-05 07:15:00,
2013-03-05 02:20:00,26.9,20.8,29.13,WSW,254,0.0,0.0,77,0.00,,,-99.99,HOBO +U30 +Weather +,2013-03-05 07:20:00,
2013-03-05 02:25:00,27.0,20.9,29.13,SW,234,0.0,0.0,77,0.00,,,-99.99,HOBO +U30 +Weather +,2013-03-05 07:25:00,
2013-03-05 02:35:00,26.9,20.8,29.13,SW,225,0.0,0.0,77,0.00,,,-99.99,HOBO +U30 +Weather +,2013-03-05 07:35:00,
2013-03-05 02:40:00,26.9,20.8,29.13,SSW,205,0.0,0.0,77,0.00,,,-99.99,HOBO +U30 +Weather +,2013-03-05 07:40:00,
2013-03-05 02:50:00,26.8,20.8,29.14,West,274,0.0,0.0,77,0.00,,,-99.99,HOBO +U30 +Weather +,2013-03-05 07:50:00,
2013-03-05 02:55:00,26.8,20.8,29.14,WSW,246,0.0,0.0,77,0.00,,,-99.99,HOBO +U30 +Weather +,2013-03-05 07:55:00,
2013-03-05 03:00:00,26.8,20.9,29.14,SW,229,0.0,0.0,78,0.00,,,-99.99,HOBO +U30 +Weather +,2013-03-05 08:00:00,
2013-03-05 03:05:00,26.7,20.8,29.14,WSW,246,0.0,0.0,78,0.00,,,-99.99,HOBO +U30 +Weather +,2013-03-05 08:05:00,
2013-03-05 03:10:00,26.7,20.9,29.15,WSW,246,0.0,0.0,78,0.00,,,-99.99,HOBO +U30 +Weather +,2013-03-05 08:10:00,
2013-03-05 03:15:00,26.7,20.9,29.15,WSW,237,0.0,0.0,78,0.00,,,-99.99,HOBO +U30 +Weather +,2013-03-05 08:15:00,
2013-03-05 03:20:00,26.7,20.9,29.15,SW,230,0.0,0.0,78,0.00,,,-99.99,HOBO +U30 +Weather +,2013-03-05 08:20:00,
2013-03-05 03:30:00,26.9,21.0,29.15,SW,226,0.0,0.0,78,0.00,,,-99.99,HOBO +U30 +Weather +,2013-03-05 08:30:00,
2013-03-05 03:35:00,26.9,21.0,29.16,SSW,212,0.0,0.0,78,0.00,,,-99.99,HOBO +U30 +Weather +,2013-03-05 08:35:00,
2013-03-05 03:40:00,26.9,21.0,29.16,WSW,250,0.0,0.0,78,0.00,,,-99.99,HOBO +U30 +Weather +,2013-03-05 08:40:00,
2013-03-05 03:50:00,27.0,21.0,29.16,WSW,237,0.0,0.0,78,0.00,,,-99.99,HOBO +U30 +Weather +,2013-03-05 08:50:00,
2013-03-05 03:55:00,27.0,21.0,29.17,WSW,243,0.0,0.0,77,0.00,,,-99.99,HOBO +U30 +Weather +,2013-03-05 08:55:00,
2013-03-05 04:00:00,26.9,20.9,29.17,WSW,256,0.0,0.0,78,0.00,,,-99.99,HOBO +U30 +Weather +,2013-03-05 09:00:00,
2013-03-05 04:05:00,26.9,20.9,29.17,SW,230,0.0,0.0,78,0.00,,,-99.99,HOBO +U30 +Weather +,2013-03-05 09:05:00,
2013-03-05 04:10:00,26.7,20.9,29.17,WSW,248,0.0,0.0,78,0.00,,,-99.99,HOBO +U30 +Weather +,2013-03-05 09:10:00,
2013-03-05 04:15:00,26.9,21.0,29.18,SW,225,0.0,0.0,78,0.00,,,-99.99,HOBO +U30 +Weather +,2013-03-05 09:15:00,
2013-03-05 04:20:00,26.7,20.9,29.18,SW,229,0.0,0.0,78,0.00,,,-99.99,HOBO +U30 +Weather +,2013-03-05 09:20:00,
2013-03-05 04:25:00,26.7,20.9,29.18,SW,219,0.0,0.0,78,0.00,,,-99.99,HOBO +U30 +Weather +,2013-03-05 09:25:00,
2013-03-05 04:30:00,26.7,20.9,29.19,WSW,247,0.0,0.0,78,0.00,,,-99.99,HOBO +U30 +Weather +,2013-03-05 09:30:00,
2013-03-05 04:35:00,26.7,20.8,29.19,WNW,288,0.0,0.0,78,0.00,,,-99.99,HOBO +U30 +Weather +,2013-03-05 09:35:00,
2013-03-05 04:40:00,26.7,20.8,29.19,West,274,0.0,0.0,78,0.00,,,-99.99,HOBO +U30 +Weather +,2013-03-05 09:40:00,
2013-03-05 04:45:00,26.7,20.8,29.19,WSW,256,0.0,0.0,78,0.00,,,-99.99,HOBO +U30 +Weather +,2013-03-05 09:45:00,
2013-03-05 04:50:00,26.7,20.8,29.19,WSW,258,0.0,0.0,78,0.00,,,-99.99,HOBO +U30 +Weather +,2013-03-05 09:50:00,
2013-03-05 04:55:00,26.7,20.8,29.19,SW,215,0.0,0.0,77,0.00,,,-99.99,HOBO +U30 +Weather +,2013-03-05 09:55:00,
2013-03-05 05:15:00,26.9,20.9,29.20,WSW,253,0.0,0.0,78,0.00,,,-99.99,HOBO +U30 +Weather +,2013-03-05 10:15:00,
2013-03-05 05:20:00,26.9,21.0,29.20,WSW,247,0.0,0.0,78,0.00,,,-99.99,HOBO +U30 +Weather +,2013-03-05 10:20:00,
2013-03-05 05:25:00,26.9,20.9,29.20,West,268,0.0,0.0,78,0.00,,,-99.99,HOBO +U30 +Weather +,2013-03-05 10:25:00,
2013-03-05 05:30:00,26.9,20.9,29.20,WSW,254,0.0,0.0,78,0.00,,,-99.99,HOBO +U30 +Weather +,2013-03-05 10:30:00,
2013-03-05 05:35:00,26.8,21.0,29.20,WSW,256,0.0,0.0,78,0.00,,,-99.99,HOBO +U30 +Weather +,2013-03-05 10:35:00,
2013-03-05 05:40:00,26.9,20.9,29.20,South,181,0.0,0.0,78,0.00,,,-99.99,HOBO +U30 +Weather +,2013-03-05 10:40:00,
2013-03-05 05:45:00,26.9,20.9,29.21,SSE,168,0.0,0.0,78,0.00,,,-99.99,HOBO +U30 +Weather +,2013-03-05 10:45:00,
2013-03-05 05:50:00,26.9,21.0,29.21,SW,215,0.0,0.0,78,0.00,,,-99.99,HOBO +U30 +Weather +,2013-03-05 10:50:00,
2013-03-05 05:55:00,27.1,21.1,29.21,SW,226,0.0,0.0,77,0.00,,,-99.99,HOBO +U30 +Weather +,2013-03-05 10:55:00,
2013-03-05 06:00:00,27.1,21.1,29.21,WSW,241,0.0,0.0,77,0.00,,,-99.99,HOBO +U30 +Weather +,2013-03-05 11:00:00,
2013-03-05 06:05:00,27.2,21.0,29.22,SW,215,0.0,0.0,77,0.00,,,-99.99,HOBO +U30 +Weather +,2013-03-05 11:05:00,
2013-03-05 06:10:00,27.2,21.0,29.22,SW,218,0.0,0.0,77,0.00,,,-99.99,HOBO +U30 +Weather +,2013-03-05 11:10:00,
2013-03-05 06:15:00,27.2,21.0,29.22,SSW,206,0.0,0.0,77,0.00,,,-99.99,HOBO +U30 +Weather +,2013-03-05 11:15:00,
2013-03-05 06:20:00,27.2,21.1,29.22,SW,222,0.0,0.0,77,0.00,,,-99.99,HOBO +U30 +Weather +,2013-03-05 11:20:00,
2013-03-05 06:25:00,27.2,21.1,29.22,WSW,244,0.0,0.0,77,0.00,,,-99.99,HOBO +U30 +Weather +,2013-03-05 11:25:00,
2013-03-05 06:30:00,27.2,21.1,29.22,SW,227,0.0,0.0,77,0.00,,,-99.99,HOBO +U30 +Weather +,2013-03-05 11:30:00,
2013-03-05 06:35:00,27.2,21.1,29.22,SW,226,0.0,0.0,77,0.00,,,-99.99,HOBO +U30 +Weather +,2013-03-05 11:35:00,
2013-03-05 06:40:00,27.2,21.2,29.22,SW,233,0.0,0.0,77,0.00,,,-99.99,HOBO +U30 +Weather +,2013-03-05 11:40:00,
2013-03-05 06:45:00,27.3,21.2,29.23,SSW,213,0.0,0.0,77,0.00,,,-99.99,HOBO +U30 +Weather +,2013-03-05 11:45:00,
2013-03-05 06:50:00,27.3,21.3,29.23,SSW,205,0.0,0.0,77,0.00,,,-99.99,HOBO +U30 +Weather +,2013-03-05 11:50:00,
2013-03-05 06:55:00,27.4,21.3,29.23,South,178,0.0,0.0,77,0.00,,,-99.99,HOBO +U30 +Weather +,2013-03-05 11:55:00,
2013-03-05 07:00:00,27.5,21.4,29.23,WSW,243,0.0,0.0,77,0.00,,,-99.99,HOBO +U30 +Weather +,2013-03-05 12:00:00,
2013-03-05 07:05:00,27.6,21.5,29.23,SSW,213,0.0,0.0,77,0.00,,,-99.99,HOBO +U30 +Weather +,2013-03-05 12:05:00,
2013-03-05 07:10:00,27.8,21.7,29.23,SW,215,0.0,0.0,77,0.00,,,-99.99,HOBO +U30 +Weather +,2013-03-05 12:10:00,
2013-03-05 07:15:00,27.8,21.7,29.23,WSW,257,0.0,0.0,77,0.00,,,-99.99,HOBO +U30 +Weather +,2013-03-05 12:15:00,
2013-03-05 07:20:00,27.9,21.8,29.23,SSW,201,0.0,0.0,77,0.00,,,-99.99,HOBO +U30 +Weather +,2013-03-05 12:20:00,
2013-03-05 07:25:00,28.0,21.9,29.24,SSW,209,0.0,0.0,77,0.00,,,-99.99,HOBO +U30 +Weather +,2013-03-05 12:25:00,
2013-03-05 07:30:00,28.0,21.9,29.24,SW,234,0.0,0.0,77,0.00,,,-99.99,HOBO +U30 +Weather +,2013-03-05 12:30:00,
2013-03-05 07:35:00,28.1,22.0,29.24,West,270,0.0,0.0,77,0.00,,,-99.99,HOBO +U30 +Weather +,2013-03-05 12:35:00,
2013-03-05 07:40:00,28.1,22.0,29.24,WSW,237,0.0,0.0,77,0.00,,,-99.99,HOBO +U30 +Weather +,2013-03-05 12:40:00,
2013-03-05 07:45:00,28.0,21.9,29.25,SW,233,0.0,0.0,77,0.00,,,-99.99,HOBO +U30 +Weather +,2013-03-05 12:45:00,
2013-03-05 07:50:00,28.4,22.3,29.25,SW,226,0.0,0.0,77,0.00,,,-99.99,HOBO +U30 +Weather +,2013-03-05 12:50:00,
2013-03-05 07:55:00,28.2,22.1,29.25,SW,216,0.0,0.0,77,0.00,,,-99.99,HOBO +U30 +Weather +,2013-03-05 12:55:00,
2013-03-05 08:05:00,28.2,22.1,29.25,West,267,0.0,0.0,77,0.00,,,-99.99,HOBO +U30 +Weather +,2013-03-05 13:05:00,
2013-03-05 08:10:00,28.4,22.3,29.25,SW,225,0.0,0.0,77,0.00,,,-99.99,HOBO +U30 +Weather +,2013-03-05 13:10:00,
2013-03-05 08:15:00,28.6,22.4,29.25,WSW,239,0.0,0.0,77,0.00,,,-99.99,HOBO +U30 +Weather +,2013-03-05 13:15:00,
2013-03-05 08:20:00,28.8,22.5,29.25,WSW,256,0.0,0.0,77,0.00,,,-99.99,HOBO +U30 +Weather +,2013-03-05 13:20:00,
2013-03-05 08:25:00,28.8,22.5,29.25,WSW,237,0.0,0.0,76,0.00,,,-99.99,HOBO +U30 +Weather +,2013-03-05 13:25:00,
2013-03-05 08:30:00,28.7,22.4,29.25,SW,232,0.0,0.0,77,0.00,,,-99.99,HOBO +U30 +Weather +,2013-03-05 13:30:00,
2013-03-05 08:35:00,28.8,22.6,29.25,West,268,0.0,0.0,77,0.00,,,-99.99,HOBO +U30 +Weather +,2013-03-05 13:35:00,
2013-03-05 08:40:00,28.9,22.7,29.26,WSW,240,0.0,0.0,77,0.00,,,-99.99,HOBO +U30 +Weather +,2013-03-05 13:40:00,
2013-03-05 08:45:00,29.6,23.2,29.26,WSW,239,0.0,0.0,76,0.00,,,-99.99,HOBO +U30 +Weather +,2013-03-05 13:45:00,
2013-03-05 08:50:00,29.4,22.9,29.26,NW,306,0.0,0.0,76,0.00,,,-99.99,HOBO +U30 +Weather +,2013-03-05 13:50:00,
2013-03-05 09:10:00,29.6,23.1,29.27,WSW,256,0.0,0.0,76,0.00,,,-99.99,HOBO +U30 +Weather +,2013-03-05 14:10:00,
2013-03-05 09:15:00,29.6,23.1,29.27,NW,309,0.0,0.0,76,0.00,,,-99.99,HOBO +U30 +Weather +,2013-03-05 14:15:00,
2013-03-05 09:20:00,29.7,23.2,29.27,SSW,198,0.0,0.0,76,0.00,,,-99.99,HOBO +U30 +Weather +,2013-03-05 14:20:00,
2013-03-05 09:25:00,29.9,23.3,29.27,SW,223,2.9,7.8,76,0.00,,,-99.99,HOBO +U30 +Weather +,2013-03-05 14:25:00,
2013-03-05 09:30:00,30.4,23.7,29.27,WSW,246,0.0,0.0,76,0.00,,,-99.99,HOBO +U30 +Weather +,2013-03-05 14:30:00,
2013-03-05 09:35:00,30.6,23.7,29.27,WSW,257,0.0,0.0,75,0.00,,,-99.99,HOBO +U30 +Weather +,2013-03-05 14:35:00,
2013-03-05 09:40:00,30.4,23.6,29.27,South,188,0.0,0.0,75,0.00,,,-99.99,HOBO +U30 +Weather +,2013-03-05 14:40:00,
2013-03-05 09:45:00,30.4,23.6,29.27,SW,229,0.0,0.0,75,0.00,,,-99.99,HOBO +U30 +Weather +,2013-03-05 14:45:00,
2013-03-05 09:50:00,31.0,24.2,29.27,WSW,243,0.0,0.0,75,0.00,,,-99.99,HOBO +U30 +Weather +,2013-03-05 14:50:00,
2013-03-05 09:55:00,31.2,24.2,29.27,West,275,0.0,0.0,74,0.00,,,-99.99,HOBO +U30 +Weather +,2013-03-05 14:55:00,
2013-03-05 10:40:00,35.6,27.2,29.26,SSW,209,0.0,0.0,71,0.00,,,-99.99,HOBO +U30 +Weather +,2013-03-05 15:40:00,
2013-03-05 10:50:00,36.4,27.1,29.25,SW,229,0.0,0.0,68,0.00,,,-99.99,HOBO +U30 +Weather +,2013-03-05 15:50:00,
2013-03-05 10:55:00,33.8,24.9,29.25,SW,227,0.0,0.0,69,0.00,,,-99.99,HOBO +U30 +Weather +,2013-03-05 15:55:00,
2013-03-05 11:00:00,34.2,25.8,29.25,SW,223,0.0,0.0,71,0.00,,,-99.99,HOBO +U30 +Weather +,2013-03-05 16:00:00,
2013-03-05 11:05:00,33.9,25.1,29.25,SSW,212,0.0,0.0,70,0.00,,,-99.99,HOBO +U30 +Weather +,2013-03-05 16:05:00,
2013-03-05 11:10:00,33.4,25.0,29.26,SW,223,0.0,0.0,71,0.00,,,-99.99,HOBO +U30 +Weather +,2013-03-05 16:10:00,
2013-03-05 11:40:00,36.3,27.1,29.26,SSW,201,0.0,0.0,68,0.00,,,-99.99,HOBO +U30 +Weather +,2013-03-05 16:40:00,
2013-03-05 11:50:00,36.8,27.4,29.25,South,187,0.0,0.0,68,0.00,,,-99.99,HOBO +U30 +Weather +,2013-03-05 16:50:00,
2013-03-05 11:55:00,36.6,27.0,29.25,West,275,0.0,0.0,67,0.00,,,-99.99,HOBO +U30 +Weather +,2013-03-05 16:55:00,
2013-03-05 12:00:00,36.3,26.7,29.25,West,263,0.0,0.0,67,0.00,,,-99.99,HOBO +U30 +Weather +,2013-03-05 17:00:00,
2013-03-05 12:05:00,39.6,29.7,29.25,WSW,256,0.0,0.0,67,0.00,,,-99.99,HOBO +U30 +Weather +,2013-03-05 17:05:00,
2013-03-05 12:10:00,38.0,27.4,29.25,SW,232,0.0,0.0,65,0.00,,,-99.99,HOBO +U30 +Weather +,2013-03-05 17:10:00,
2013-03-05 12:30:00,37.7,27.3,29.25,West,272,0.0,0.0,65,0.00,,,-99.99,HOBO +U30 +Weather +,2013-03-05 17:30:00,
2013-03-05 12:35:00,38.3,27.8,29.25,WSW,247,0.0,0.0,65,0.00,,,-99.99,HOBO +U30 +Weather +,2013-03-05 17:35:00,
2013-03-05 12:40:00,37.8,27.2,29.25,SW,229,0.0,0.0,65,0.00,,,-99.99,HOBO +U30 +Weather +,2013-03-05 17:40:00,
2013-03-05 12:45:00,37.7,27.1,29.25,WSW,254,0.0,0.0,65,0.00,,,-99.99,HOBO +U30 +Weather +,2013-03-05 17:45:00,
2013-03-05 12:50:00,37.6,27.2,29.25,WSW,246,0.0,0.0,65,0.00,,,-99.99,HOBO +U30 +Weather +,2013-03-05 17:50:00,
2013-03-05 12:55:00,37.7,27.2,29.25,West,264,0.0,0.0,65,0.00,,,-99.99,HOBO +U30 +Weather +,2013-03-05 17:55:00,
2013-03-05 13:00:00,38.9,28.2,29.25,WSW,256,0.0,0.0,65,0.00,,,-99.99,HOBO +U30 +Weather +,2013-03-05 18:00:00,
2013-03-05 13:05:00,39.2,28.0,29.25,WSW,250,0.0,0.0,64,0.00,,,-99.99,HOBO +U30 +Weather +,2013-03-05 18:05:00,
2013-03-05 13:10:00,38.3,27.3,29.25,SW,230,0.0,0.0,64,0.00,,,-99.99,HOBO +U30 +Weather +,2013-03-05 18:10:00,
2013-03-05 13:15:00,40.2,28.9,29.25,WSW,243,0.0,0.0,63,0.00,,,-99.99,HOBO +U30 +Weather +,2013-03-05 18:15:00,
2013-03-05 13:20:00,39.7,28.1,29.25,SW,236,0.0,0.0,62,0.00,,,-99.99,HOBO +U30 +Weather +,2013-03-05 18:20:00,
2013-03-05 13:25:00,39.9,28.3,29.25,WSW,240,0.0,0.0,62,0.00,,,-99.99,HOBO +U30 +Weather +,2013-03-05 18:25:00,
2013-03-05 13:40:00,43.4,29.8,29.25,WSW,243,0.0,0.0,58,0.00,,,-99.99,HOBO +U30 +Weather +,2013-03-05 18:40:00,
2013-03-05 13:55:00,39.3,28.0,29.26,West,270,0.0,0.0,63,0.00,,,-99.99,HOBO +U30 +Weather +,2013-03-05 18:55:00,
2013-03-05 14:00:00,39.9,28.6,29.26,West,270,0.0,0.0,63,0.00,,,-99.99,HOBO +U30 +Weather +,2013-03-05 19:00:00,
2013-03-05 14:05:00,39.7,28.2,29.26,West,270,0.0,0.0,63,0.00,,,-99.99,HOBO +U30 +Weather +,2013-03-05 19:05:00,
2013-03-05 14:15:00,38.0,27.2,29.26,WSW,251,2.5,7.8,64,0.00,,,-99.99,HOBO +U30 +Weather +,2013-03-05 19:15:00,
2013-03-05 15:00:00,39.7,28.4,29.27,SW,233,0.0,0.0,63,0.00,,,-99.99,HOBO +U30 +Weather +,2013-03-05 20:00:00,
2013-03-05 15:25:00,40.7,28.7,29.28,WSW,254,0.0,0.0,62,0.00,,,-99.99,HOBO +U30 +Weather +,2013-03-05 20:25:00,
2013-03-05 15:35:00,40.4,28.8,29.28,West,278,0.0,0.0,63,0.00,,,-99.99,HOBO +U30 +Weather +,2013-03-05 20:35:00,
2013-03-05 15:40:00,40.5,28.6,29.28,SW,215,0.0,0.0,62,0.00,,,-99.99,HOBO +U30 +Weather +,2013-03-05 20:40:00,
2013-03-05 15:45:00,39.5,27.9,29.28,SSW,211,0.0,0.0,63,0.00,,,-99.99,HOBO +U30 +Weather +,2013-03-05 20:45:00,
2013-03-05 15:50:00,39.7,28.1,29.28,WSW,254,0.0,0.0,62,0.00,,,-99.99,HOBO +U30 +Weather +,2013-03-05 20:50:00,
2013-03-05 15:55:00,39.3,27.8,29.28,SW,216,0.0,0.0,63,0.00,,,-99.99,HOBO +U30 +Weather +,2013-03-05 20:55:00,
2013-03-05 16:00:00,39.4,28.2,29.28,SSW,211,0.0,0.0,63,0.00,,,-99.99,HOBO +U30 +Weather +,2013-03-05 21:00:00,
2013-03-05 16:05:00,39.7,28.5,29.28,SW,219,0.0,0.0,63,0.00,,,-99.99,HOBO +U30 +Weather +,2013-03-05 21:05:00,
2013-03-05 16:10:00,39.7,28.5,29.29,WSW,254,0.0,0.0,63,0.00,,,-99.99,HOBO +U30 +Weather +,2013-03-05 21:10:00,
2013-03-05 16:20:00,40.0,28.6,29.29,SW,225,0.0,0.0,63,0.00,,,-99.99,HOBO +U30 +Weather +,2013-03-05 21:20:00,
2013-03-05 16:30:00,39.2,28.0,29.29,West,268,0.0,0.0,64,0.00,,,-99.99,HOBO +U30 +Weather +,2013-03-05 21:30:00,
2013-03-05 16:45:00,38.0,27.7,29.29,WSW,239,0.0,0.0,66,0.00,,,-99.99,HOBO +U30 +Weather +,2013-03-05 21:45:00,
2013-03-05 16:50:00,37.8,27.8,29.29,WSW,239,0.0,0.0,66,0.00,,,-99.99,HOBO +U30 +Weather +,2013-03-05 21:50:00,
2013-03-05 16:55:00,37.8,27.7,29.29,WSW,257,0.0,0.0,66,0.00,,,-99.99,HOBO +U30 +Weather +,2013-03-05 21:55:00,
2013-03-05 17:05:00,37.2,27.7,29.30,South,190,0.0,0.0,68,0.00,,,-99.99,HOBO +U30 +Weather +,2013-03-05 22:05:00,
2013-03-05 17:15:00,37.2,27.6,29.30,SW,226,0.0,0.0,68,0.00,,,-99.99,HOBO +U30 +Weather +,2013-03-05 22:15:00,
2013-03-05 17:20:00,37.0,27.5,29.30,WSW,243,0.0,0.4,68,0.00,,,-99.99,HOBO +U30 +Weather +,2013-03-05 22:20:00,
2013-03-05 17:25:00,36.8,27.4,29.30,WSW,241,0.0,0.0,68,0.00,,,-99.99,HOBO +U30 +Weather +,2013-03-05 22:25:00,
2013-03-05 17:30:00,36.9,27.6,29.30,SW,234,0.0,0.0,68,0.00,,,-99.99,HOBO +U30 +Weather +,2013-03-05 22:30:00,
2013-03-05 17:40:00,36.3,27.4,29.30,WSW,257,0.0,0.0,69,0.00,,,-99.99,HOBO +U30 +Weather +,2013-03-05 22:40:00,
2013-03-05 17:50:00,35.9,27.2,29.30,SW,236,0.0,0.0,70,0.00,,,-99.99,HOBO +U30 +Weather +,2013-03-05 22:50:00,
2013-03-05 17:55:00,34.9,26.8,29.30,WSW,241,0.0,0.0,72,0.00,,,-99.99,HOBO +U30 +Weather +,2013-03-05 22:55:00,
2013-03-05 18:05:00,33.6,26.7,29.31,WSW,241,0.0,0.0,75,0.00,,,-99.99,HOBO +U30 +Weather +,2013-03-05 23:05:00,
2013-03-05 18:10:00,33.0,26.6,29.31,WSW,241,0.0,0.0,77,0.00,,,-99.99,HOBO +U30 +Weather +,2013-03-05 23:10:00,
2013-03-05 18:15:00,32.3,26.5,29.31,WSW,241,0.0,0.0,79,0.00,,,-99.99,HOBO +U30 +Weather +,2013-03-05 23:15:00,
2013-03-05 18:20:00,32.3,26.3,29.31,WSW,241,0.0,0.0,78,0.00,,,-99.99,HOBO +U30 +Weather +,2013-03-05 23:20:00,
2013-03-05 18:25:00,31.6,26.1,29.31,WSW,241,0.0,0.0,79,0.00,,,-99.99,HOBO +U30 +Weather +,2013-03-05 23:25:00,
2013-03-05 18:30:00,31.4,26.3,29.31,WSW,241,0.0,0.0,81,0.00,,,-99.99,HOBO +U30 +Weather +,2013-03-05 23:30:00,
2013-03-05 18:35:00,31.1,26.1,29.31,WSW,241,0.0,0.0,81,0.00,,,-99.99,HOBO +U30 +Weather +,2013-03-05 23:35:00,
2013-03-05 18:40:00,30.8,26.0,29.32,WSW,241,0.0,0.0,82,0.00,,,-99.99,HOBO +U30 +Weather +,2013-03-05 23:40:00,
2013-03-05 18:45:00,30.7,26.1,29.32,WSW,241,0.0,0.0,82,0.00,,,-99.99,HOBO +U30 +Weather +,2013-03-05 23:45:00,
2013-03-05 19:10:00,30.4,25.8,29.33,WSW,241,0.0,0.0,82,0.00,,,-99.99,HOBO +U30 +Weather +,2013-03-06 00:10:00,
2013-03-05 19:15:00,30.2,25.8,29.33,WSW,241,0.0,0.0,83,0.00,,,-99.99,HOBO +U30 +Weather +,2013-03-06 00:15:00,
2013-03-05 19:20:00,30.1,25.7,29.33,WSW,241,0.0,0.0,83,0.00,,,-99.99,HOBO +U30 +Weather +,2013-03-06 00:20:00,
2013-03-05 19:25:00,29.8,25.6,29.33,WSW,241,0.0,0.0,84,0.00,,,-99.99,HOBO +U30 +Weather +,2013-03-06 00:25:00,
2013-03-05 19:30:00,29.6,25.5,29.33,WSW,241,0.0,0.0,84,0.00,,,-99.99,HOBO +U30 +Weather +,2013-03-06 00:30:00,
2013-03-05 19:35:00,29.4,25.5,29.33,WSW,241,0.0,0.0,85,0.00,,,-99.99,HOBO +U30 +Weather +,2013-03-06 00:35:00,
2013-03-05 19:50:00,28.8,25.2,29.33,WSW,241,0.0,0.0,86,0.00,,,-99.99,HOBO +U30 +Weather +,2013-03-06 00:50:00,
2013-03-05 20:25:00,27.6,24.4,29.33,WSW,241,0.0,0.0,87,0.00,,,-99.99,HOBO +U30 +Weather +,2013-03-06 01:25:00,
2013-03-05 20:35:00,27.1,23.9,29.33,WSW,241,0.0,0.0,87,0.00,,,-99.99,HOBO +U30 +Weather +,2013-03-06 01:35:00,
2013-03-05 21:00:00,26.9,23.8,29.33,WSW,241,0.0,0.0,88,0.00,,,-99.99,HOBO +U30 +Weather +,2013-03-06 02:00:00,
2013-03-05 21:05:00,27.0,23.9,29.33,WSW,241,0.0,0.0,88,0.00,,,-99.99,HOBO +U30 +Weather +,2013-03-06 02:05:00,
2013-03-05 21:10:00,26.3,23.2,29.33,WSW,241,0.0,0.0,87,0.00,,,-99.99,HOBO +U30 +Weather +,2013-03-06 02:10:00,
2013-03-05 21:15:00,26.1,23.1,29.34,WSW,241,0.0,0.0,88,0.00,,,-99.99,HOBO +U30 +Weather +,2013-03-06 02:15:00,
2013-03-05 21:20:00,26.1,23.3,29.33,WSW,241,0.0,0.0,88,0.00,,,-99.99,HOBO +U30 +Weather +,2013-03-06 02:20:00,
2013-03-05 21:25:00,26.5,23.7,29.33,WSW,241,0.0,0.0,89,0.00,,,-99.99,HOBO +U30 +Weather +,2013-03-06 02:25:00,
2013-03-05 21:30:00,27.0,24.1,29.33,WSW,241,0.0,0.0,88,0.00,,,-99.99,HOBO +U30 +Weather +,2013-03-06 02:30:00,
2013-03-05 21:35:00,27.1,24.0,29.33,WSW,241,0.0,0.0,88,0.00,,,-99.99,HOBO +U30 +Weather +,2013-03-06 02:35:00,
2013-03-05 21:40:00,27.4,24.3,29.33,WSW,241,0.0,0.0,88,0.00,,,-99.99,HOBO +U30 +Weather +,2013-03-06 02:40:00,
2013-03-05 21:45:00,27.6,24.5,29.33,WSW,241,0.0,0.0,87,0.00,,,-99.99,HOBO +U30 +Weather +,2013-03-06 02:45:00,
2013-03-05 21:50:00,27.9,24.6,29.33,WSW,241,0.0,0.0,87,0.00,,,-99.99,HOBO +U30 +Weather +,2013-03-06 02:50:00,
2013-03-05 21:55:00,27.9,24.6,29.33,WSW,241,0.0,0.0,87,0.00,,,-99.99,HOBO +U30 +Weather +,2013-03-06 02:55:00,
2013-03-05 22:00:00,28.1,24.8,29.33,WSW,241,0.0,0.0,87,0.00,,,-99.99,HOBO +U30 +Weather +,2013-03-06 03:00:00,
2013-03-05 22:05:00,28.3,25.0,29.33,WSW,241,0.0,0.0,87,0.00,,,-99.99,HOBO +U30 +Weather +,2013-03-06 03:05:00,
2013-03-05 22:15:00,28.7,25.4,29.34,WSW,241,0.0,0.0,87,0.00,,,-99.99,HOBO +U30 +Weather +,2013-03-06 03:15:00,
2013-03-05 22:20:00,29.0,25.6,29.34,WSW,241,0.0,0.0,86,0.00,,,-99.99,HOBO +U30 +Weather +,2013-03-06 03:20:00,
2013-03-05 22:25:00,29.0,25.5,29.33,WSW,241,0.0,0.0,86,0.00,,,-99.99,HOBO +U30 +Weather +,2013-03-06 03:25:00,
2013-03-05 22:30:00,29.1,25.5,29.33,WSW,241,0.0,0.0,86,0.00,,,-99.99,HOBO +U30 +Weather +,2013-03-06 03:30:00,
2013-03-05 22:35:00,29.2,25.6,29.33,WSW,241,0.0,0.0,86,0.00,,,-99.99,HOBO +U30 +Weather +,2013-03-06 03:35:00,
2013-03-05 22:40:00,29.2,25.6,29.33,WSW,241,0.0,0.0,86,0.00,,,-99.99,HOBO +U30 +Weather +,2013-03-06 03:40:00,
2013-03-05 23:05:00,29.4,25.7,29.34,WSW,241,0.0,0.0,86,0.00,,,-99.99,HOBO +U30 +Weather +,2013-03-06 04:05:00,
2013-03-05 23:15:00,29.4,25.8,29.34,WSW,241,0.0,0.0,86,0.00,,,-99.99,HOBO +U30 +Weather +,2013-03-06 04:15:00,
2013-03-05 23:20:00,29.4,26.0,29.34,WSW,241,0.0,0.0,86,0.00,,,-99.99,HOBO +U30 +Weather +,2013-03-06 04:20:00,
2013-03-05 23:25:00,29.4,26.0,29.34,WSW,241,0.0,0.0,87,0.00,,,-99.99,HOBO +U30 +Weather +,2013-03-06 04:25:00,
2013-03-05 23:30:00,29.4,26.0,29.34,WSW,241,0.0,0.0,87,0.00,,,-99.99,HOBO +U30 +Weather +,2013-03-06 04:30:00,
2013-03-05 23:35:00,29.5,26.1,29.34,WSW,241,0.0,0.0,87,0.00,,,-99.99,HOBO +U30 +Weather +,2013-03-06 04:35:00,
2013-03-05 23:40:00,29.6,26.1,29.34,WSW,241,0.0,0.0,86,0.00,,,-99.99,HOBO +U30 +Weather +,2013-03-06 04:40:00,
2013-03-05 23:45:00,29.5,26.0,29.34,WSW,241,0.0,0.0,86,0.00,,,-99.99,HOBO +U30 +Weather +,2013-03-06 04:45:00,
2013-03-05 23:50:00,29.4,26.1,29.34,WSW,241,0.0,0.0,87,0.00,,,-99.99,HOBO +U30 +Weather +,2013-03-06 04:50:00,
2013-03-05 23:55:00,29.4,26.1,29.34,WSW,241,0.0,0.0,87,0.00,,,-99.99,HOBO +U30 +Weather +,2013-03-06 04:55:00,